Fort Leonard Wood, MO

4:56 PM CDT on April 27, 2017 (GMT -0500)
Waynesville Regional At Forney Field

Weather History for KTBN - November, 2012

Change the Weather History Date:

Monday, November 5, 2012

  Actual Average Record
Temperature  
Mean Temperature 44 °F -  
Max Temperature 46 °F 56 °F 78 °F (1999)
Min Temperature 40 °F 42 °F 30 °F (2010)
Degree Days  
Heating Degree Days 22    
Moisture  
Dew Point 42 °F    
Average Humidity 95    
Maximum Humidity 100    
Minimum Humidity 66    
Precipitation  
Precipitation 0.24 in - - ()
Sea Level Pressure  
Sea Level Pressure 30.01 in    
Wind  
Wind Speed 9 mph (SE)    
Max Wind Speed 15 mph    
Max Gust Speed 20 mph    
Visibility 8 miles    
Events Rain    
Averages and records for this station are not official NWS values.
T = Trace of Precipitation, MM = Missing Value Source: NWS Daily Summary

Daily Weather History Graph

Daily Weather History Graph

Search for Another Location

Airport or City:

Trip Planner

Search our weather history database for the weather conditions in past years. The results will help you decide how hot, cold, wet, or windy it might be!

Date:

Astronomy

Nov. 05, 2012 Rise Set
Actual Time 6:38 AM CST 5:05 PM CST
Civil Twilight 6:11 AM CST 5:32 PM CST
Nautical Twilight 5:39 AM CST 6:03 PM CST
Astronomical Twilight 5:09 AM CST 6:34 PM CST
Moon 10:43 PM CST (11/5) 11:58 AM CST (11/5)
Length of Visible Light 11h 21m
Length of Day
10h 26m
Waning Gibbous, 62% of the Moon is Illuminated
Nov 5
Waning Gibbous
Nov 6
Last Quarter
Nov 13
New
Nov 20
First Quarter
Nov 28
Full

Hourly Weather History & Observations

Time (CST) Temp. Windchill Dew Point Humidity Pressure Visibility Wind Dir Wind Speed Gust Speed Precip Events Conditions
12:55 AM 46.9 °F - 36.0 °F 66% 30.09 in 10.0 mi SE 9.2 mph - N/A   Scattered Clouds
1:55 AM 46.8 °F - 36.5 °F 67% 30.06 in 10.0 mi SE 9.2 mph - N/A   Scattered Clouds
2:55 AM 46.9 °F - 36.7 °F 68% 30.04 in 10.0 mi SE 10.4 mph - N/A   Mostly Cloudy
3:29 AM 46.4 °F 42.9 °F 37.4 °F 71% 30.03 in 10.0 mi SSE 6.9 mph - N/A   Light Drizzle
3:55 AM 45.1 °F 39.9 °F 40.3 °F 83% 30.03 in 10.0 mi SSE 10.4 mph - 0.00 in Rain Light Rain
4:55 AM 43.9 °F 38.8 °F 42.1 °F 93% 30.03 in 10.0 mi South 9.2 mph - 0.02 in Rain Light Rain
5:40 AM 42.8 °F 36.6 °F 42.8 °F 100% 30.00 in 10.0 mi SSE 11.5 mph - N/A   Overcast
5:55 AM 43.3 °F 36.8 °F 42.6 °F 97% 29.99 in 10.0 mi SSE 12.7 mph - 0.03 in   Overcast
6:55 AM 43.2 °F 38.4 °F 42.1 °F 96% 30.00 in 10.0 mi SSE 8.1 mph - N/A   Overcast
7:35 AM 42.8 °F 37.0 °F 41.0 °F 93% 30.01 in 10.0 mi SSE 10.4 mph - N/A   Light Drizzle
7:55 AM 42.8 °F 35.8 °F 42.1 °F 97% 30.00 in 7.0 mi SSE 13.8 mph - 0.00 in Rain Light Rain
8:39 AM 42.8 °F 36.2 °F 42.8 °F 100% 30.00 in 5.0 mi SSE 12.7 mph - N/A Rain Light Rain
8:42 AM 42.8 °F 36.6 °F 42.8 °F 100% 30.00 in 3.0 mi SSE 11.5 mph - N/A   Overcast
8:55 AM 42.4 °F 35.7 °F 42.3 °F 99% 30.00 in 3.0 mi South 12.7 mph 19.6 mph 0.11 in   Overcast
9:12 AM 42.8 °F 36.2 °F 42.8 °F 100% 30.00 in 7.0 mi SSE 12.7 mph 16.1 mph N/A Rain Light Rain
9:46 AM 42.8 °F 36.6 °F 42.8 °F 100% 30.00 in 5.0 mi SSE 11.5 mph - N/A Rain Light Rain
9:55 AM 42.6 °F 35.6 °F 42.4 °F 99% 30.01 in 10.0 mi SSE 13.8 mph - 0.06 in Rain Light Rain
10:03 AM 42.8 °F 36.2 °F 42.8 °F 100% 30.00 in 10.0 mi SSE 12.7 mph - N/A   Overcast
10:07 AM 42.8 °F 36.6 °F 42.8 °F 100% 30.00 in 10.0 mi SSE 11.5 mph - N/A   Light Drizzle
10:09 AM 42.8 °F 36.2 °F 42.8 °F 100% 30.00 in 10.0 mi SSE 12.7 mph - N/A   Overcast
10:10 AM 42.8 °F 35.4 °F 42.8 °F 100% 30.00 in 10.0 mi SSE 15.0 mph - N/A   Light Drizzle
10:21 AM 42.8 °F 37.0 °F 42.8 °F 100% 30.00 in 10.0 mi SSE 10.4 mph - N/A   Overcast
10:55 AM 43.2 °F 36.6 °F 42.1 °F 96% 30.00 in 10.0 mi SSE 12.7 mph - 0.00 in   Overcast
11:19 AM 42.8 °F 37.0 °F 42.8 °F 100% 30.00 in 10.0 mi SSE 10.4 mph - N/A   Overcast
11:55 AM 43.7 °F 38.6 °F 42.1 °F 94% 29.99 in 10.0 mi SSE 9.2 mph - N/A   Overcast
12:13 PM 44.6 °F 39.2 °F 42.8 °F 93% 29.99 in 10.0 mi SSE 10.4 mph - N/A   Overcast
12:16 PM 44.6 °F 40.2 °F 42.8 °F 93% 29.99 in 10.0 mi SSE 8.1 mph - N/A   Overcast
12:30 PM 44.6 °F 38.8 °F 42.8 °F 93% 29.99 in 10.0 mi SSE 11.5 mph - N/A   Overcast
12:55 PM 44.1 °F 38.1 °F 42.1 °F 93% 29.98 in 10.0 mi SSE 11.5 mph - N/A   Overcast
1:46 PM 44.6 °F 40.7 °F 41.0 °F 87% 29.97 in 10.0 mi South 6.9 mph - N/A Rain Light Rain
1:55 PM 44.2 °F 39.2 °F 41.9 °F 91% 29.97 in 10.0 mi SSE 9.2 mph - 0.00 in Rain Light Rain
2:00 PM 44.6 °F 40.2 °F 41.0 °F 87% 29.97 in 10.0 mi SSE 8.1 mph - N/A   Overcast
2:14 PM 44.6 °F 40.7 °F 41.0 °F 87% 29.97 in 10.0 mi SSE 6.9 mph - N/A   Overcast
2:17 PM 44.6 °F 40.2 °F 42.8 °F 93% 29.97 in 10.0 mi SSE 8.1 mph - N/A   Overcast
2:21 PM 44.6 °F 41.4 °F 42.8 °F 93% 29.97 in 9.0 mi SSE 5.8 mph - N/A   Light Drizzle
2:22 PM 44.6 °F 40.7 °F 42.8 °F 93% 29.97 in 9.0 mi SSE 6.9 mph - N/A   Light Drizzle
2:24 PM 44.6 °F 39.7 °F 42.8 °F 93% 29.97 in 9.0 mi SE 9.2 mph - N/A Rain Light Rain
2:33 PM 44.6 °F 39.7 °F 42.8 °F 93% 29.97 in 7.0 mi SSE 9.2 mph - N/A Rain Light Rain
2:37 PM 44.6 °F 40.7 °F 42.8 °F 93% 29.98 in 7.0 mi SSE 6.9 mph - N/A Rain Light Rain
2:55 PM 43.9 °F 39.9 °F 43.0 °F 97% 29.98 in 4.0 mi SSE 6.9 mph - 0.01 in Rain Light Rain
2:57 PM 44.6 °F 40.2 °F 42.8 °F 93% 29.98 in 4.0 mi SE 8.1 mph - N/A Rain Light Rain
3:02 PM 44.6 °F 40.7 °F 42.8 °F 93% 29.98 in 5.0 mi SE 6.9 mph - N/A Rain Light Rain
3:27 PM 44.6 °F 40.7 °F 42.8 °F 93% 29.99 in 8.0 mi SE 6.9 mph - N/A   Light Drizzle
3:30 PM 44.6 °F 40.7 °F 42.8 °F 93% 29.99 in 8.0 mi SE 6.9 mph - N/A   Light Drizzle
3:33 PM 42.8 °F 40.1 °F 42.8 °F 100% 29.99 in 9.0 mi SE 4.6 mph - N/A   Overcast
3:55 PM 43.5 °F 39.4 °F 43.2 °F 99% 29.99 in 10.0 mi ESE 6.9 mph - 0.00 in   Overcast
4:11 PM 42.8 °F 38.0 °F 42.8 °F 100% 29.99 in 10.0 mi ESE 8.1 mph - N/A   Overcast
4:52 PM 42.8 °F 38.0 °F 42.8 °F 100% 30.00 in 6.0 mi ESE 8.1 mph - N/A   Overcast
4:55 PM 43.0 °F 37.7 °F 42.8 °F 99% 30.00 in 5.0 mi ESE 9.2 mph - N/A   Overcast
5:23 PM 42.8 °F 39.3 °F 42.8 °F 100% 30.01 in 5.0 mi East 5.8 mph - N/A   Overcast
5:36 PM 42.8 °F 38.6 °F 42.8 °F 100% 30.02 in 5.0 mi ESE 6.9 mph - N/A   Overcast
5:50 PM 42.8 °F 40.1 °F 42.8 °F 100% 30.03 in 3.0 mi East 4.6 mph - N/A   Overcast
5:55 PM 42.6 °F 39.9 °F 42.4 °F 99% 30.03 in 3.0 mi East 4.6 mph - N/A   Overcast
6:26 PM 42.8 °F 41.1 °F 42.8 °F 100% 30.04 in 3.0 mi East 3.5 mph - N/A   Light Drizzle
6:27 PM 42.8 °F 41.1 °F 42.8 °F 100% 30.04 in 3.0 mi East 3.5 mph - N/A   Overcast
6:29 PM 42.8 °F 41.1 °F 42.8 °F 100% 30.05 in 3.0 mi East 3.5 mph - N/A   Overcast
6:44 PM 42.8 °F 40.1 °F 42.8 °F 100% 30.05 in 5.0 mi East 4.6 mph - N/A   Overcast
6:55 PM 42.6 °F 40.9 °F 42.4 °F 99% 30.05 in 5.0 mi East 3.5 mph - 0.01 in   Overcast
7:24 PM 42.8 °F 40.1 °F 42.8 °F 100% 30.05 in 4.0 mi East 4.6 mph - N/A   Overcast
7:55 PM 42.4 °F 38.1 °F 42.3 °F 99% 30.06 in 5.0 mi East 6.9 mph - N/A   Overcast
8:37 PM 42.8 °F 40.1 °F 41.0 °F 93% 30.07 in 6.0 mi East 4.6 mph - N/A   Overcast
8:55 PM 42.1 °F 37.7 °F 41.7 °F 99% 30.07 in 4.0 mi East 6.9 mph - N/A   Overcast
9:09 PM 41.0 °F 37.1 °F 41.0 °F 100% 30.07 in 3.0 mi East 5.8 mph - N/A   Overcast
9:32 PM 41.0 °F 36.4 °F 41.0 °F 100% 30.07 in 4.0 mi ESE 6.9 mph - N/A   Overcast
9:51 PM 41.0 °F 37.1 °F 41.0 °F 100% 30.07 in 4.0 mi East 5.8 mph - N/A   Overcast
9:55 PM 41.4 °F 36.2 °F 41.4 °F 100% 30.07 in 4.0 mi East 8.1 mph - N/A   Overcast
10:55 PM 41.2 °F 38.2 °F 41.0 °F 99% 30.06 in 7.0 mi East 4.6 mph - N/A   Overcast
11:12 PM 41.0 °F 37.1 °F 41.0 °F 100% 30.06 in 10.0 mi East 5.8 mph - N/A   Overcast
11:49 PM 41.0 °F 37.1 °F 41.0 °F 100% 30.06 in 10.0 mi ESE 5.8 mph - N/A   Overcast
11:55 PM 40.6 °F 37.5 °F 40.5 °F 99% 30.06 in 10.0 mi ESE 4.6 mph - N/A   Overcast